Home > Weather > Bridgewater > Past weeks

Flag for USA Past Weather in Bridgewater, Massachusetts, USA — Yesterday and Last 2 Weeks

Now
64 °F

Overcast.


Feels Like: 64 °F
Forecast: 62 / 84 °F
Wind: No wind

Location: Taunton Municipal Airport

Current Time: Aug 28, 2016 at 1:12:49 AM

Latest Report: Aug 27, 2016 at 11:52 PM


Visibility: 10 mi

Pressure: 30.24 "Hg

Humidity: 90%

Dew Point: 61 °F

Location of BridgewaterLocation

Past Weather in Bridgewater — Graph

°F

Bridgewater Temperature Yesterday

Maximum temperature yesterday: 88 °F (at 12:52 PM)
Minimum temperature yesterday: 59 °F (at 5:59 AM)
Average temperature yesterday: 72 °F

High & Low Weather Summary for the Past Weeks

 TemperatureHumidityPressure
High97 °F (Aug 14, 3:52 PM)100% (Aug 27, 3:55 AM)30.28 "Hg (Aug 27, 3:55 AM)
Low47 °F (Aug 23, 4:52 AM)30% (Aug 23, 12:52 PM)29.72 "Hg (Aug 22, 3:52 AM)
Average75 °F70%30.01 "Hg
* Reported Aug 12 11:52 PM — Aug 27 11:52 PM, Bridgewater, Weather by CustomWeather, © 2016

Note: Actual official high and low records may vary slightly from our data, if they occured in-between our weather recording intervals... More about our weather records

Advertising

Bridgewater Weather History for the Previous 24 Hours

Scroll right to see more
 ConditionsComfort  
Time TempWeatherWind HumidityBarometerVisibility
11:52 PM
Sat, Aug 27
64 °FOvercast.No wind90%30.24 "Hg10 mi
10:52 PM64 °FPassing clouds.No wind90%30.24 "Hg10 mi
9:52 PM66 °FPassing clouds.3 mph84%30.24 "Hg10 mi
8:52 PM65 °FClear.No wind87%30.22 "Hg10 mi
7:52 PM72 °FSunny.No wind66%30.19 "Hg10 mi
6:52 PM77 °FSunny.3 mph50%30.17 "Hg10 mi
5:52 PM82 °FSunny.5 mph38%30.16 "Hg10 mi
4:52 PM86 °FSunny.5 mph35%30.14 "Hg10 mi
3:52 PM87 °FSunny.8 mph35%30.14 "Hg10 mi
2:52 PM87 °FPassing clouds.7 mph36%30.14 "Hg10 mi
1:52 PM86 °FPartly sunny.5 mph36%30.15 "Hg10 mi
12:52 PM88 °FPassing clouds.6 mph34%30.15 "Hg10 mi
11:52 AM86 °FSunny.3 mph37%30.16 "Hg10 mi
10:52 AM85 °FSunny.5 mph42%30.17 "Hg10 mi
8:52 AM76 °FSunny.No wind67%30.16 "Hg10 mi
7:52 AM69 °FSunny.3 mph87%30.15 "Hg10 mi
6:52 AM61 °FClear.No wind97%30.13 "Hg9 mi
5:59 AM59 °FFog.No wind96%30.11 "Hg0 mi
5:02 AM60 °FFog.No wind93%30.09 "Hg1 mi
4:55 AM60 °FFog.No wind96%30.09 "Hg1 mi
3:55 AM61 °FFog.No wind100%30.08 "Hg1 mi
2:52 AM63 °FFog.No wind93%30.07 "Hg0 mi
1:59 AM65 °FFog.No wind94%30.06 "Hg1 mi
1:04 AM67 °FFog.No wind97%30.04 "Hg2 mi
Weather by CustomWeather, © 2016

See weather overviewHow to use our weather pages